Weather in Sarkand

Kazakhstan     45˚24′49″N   79˚55′00″E
temp.,
°C
wind,
m/s
gust,
m/s
humid.,
%
clouds,
%
prec.,
mm/h
press.,
hPa
HPBL,
m
28 november, sat
sat2800:00+2˚s1162100 0.0 102822
03:00+3˚sse2260100 0.0 102622
06:00+4˚ese1263100 0.0 102522
09:00+5˚se2367100 0.0 102522
12:00+5˚w1285100 0.0 102724
15:00wsw51299100 5.9 1034689
18:00w41284100 7.3 1038462
21:00−3˚ese1190100 0.0 104033
29 november, sun
sun2900:00−3˚ene1193100 0.1 104127
03:00−4˚e1195100 0.3 104133
06:00−5˚nne1197100 0.5 104221
09:00−5˚e119598 0.3 104325
12:00−4˚e129097 0.6 1042300
15:00−4˚ese118792 0.0 1041119
18:00−6˚ene128796 0.1 104326
21:00−6˚ene1297100 0.3 104355
30 november, mon
mon3000:00−6˚nnw1397100 2.1 1042270
03:00−6˚wnw0397100 2.3 1042227
06:00−7˚ne1297100 3.9 104237
09:00−7˚ne1196100 1.6 104376
12:00−7˚nnw2296100 2.1 1042232
15:00−7˚nne2297100 0.3 1041182
18:00−10˚ese2294100 0.3 104321
21:00−12˚ese228593 0.0 104321
1 december, tue
tue100:00−13˚se117359 0.0 104221
03:00−13˚sse11620 0.0 104221
06:00−13˚se11530 0.0 104221
09:00−13˚sse11490 0.0 104221
12:00−9˚ne11690 0.0 104029
15:00−10˚sse00620 0.0 104021
18:00−12˚sse11480 0.0 104021
21:00−12˚s12420 0.0 104021
2 december, wed
wed200:00−12˚s11360 0.0 103921
03:00−12˚sse11340 0.0 103921
06:00−12˚s11290 0.0 103921
09:00−10˚s11310 0.0 103921
12:00−6˚nne00520 0.0 103721
15:00−7˚ese01460 0.0 103521
18:00−9˚sse11360 0.0 103621
21:00−8˚s22320 0.0 103521